FLOCK 2K-04 (42851 NORAD) Tracking and Keplerian Element Data

This shows tracking and keplerian element data for the satellite.

Feedback or suggestion? Click here.




ElementValue
Catalog42851
NameFLOCK 2K-04
Epoch Orbit3280
Epoch Day45.53370869
Epoch Year2018
RAAN308.2833
Inclination96.9928
Eccentricity0.0010128
Argument of Perigee190.9577
Mean Anonmoly169.1449
Mean Motion15.35621962
Decay Rate7.532E-05
L11 42851U 17042AC 18045.53370869 .00007532 00000-0 21932-3 0 9990
L22 42851 96.9928 308.2833 0010128 190.9577 169.1449 15.35621962 32809

Live tracking and technical data element details for FLOCK 2K-04 (NORAD 42851). FLOCK 2K-04 can be tracked NOW for your location showing map with azimuth and elevation plus other details from your city location.

Track the satellite on the map from your city or location and see movement details for azimuth, elevation, latitude, longitude, range, height, and movement on the map or in text.







IsCatalogInMostPopularTable: catalog: 42851, numindb: 133
Update: records affected: 1



GetName: 42851 FLOCK 2K-04

Hit Count: updated at: Sat, 15 Dec 2018 19:44:08 GMT